User: anonymous   Login
Location: Columbia
(38.9520°N, 92.3340°W)
Time: 15:52:09
(UTC-05:00)
Language:

Iridium 22 - Orbit

View from above orbital plane
View from above orbital plane
View from above satellite
View from above satellite

Ground track
Ground track

The orbit data is extracted from the following two-line orbital elements,

1 24907U 97043E   17202.16892987 +.00000069 +00000-0 +17624-4 0  9996
2 24907 086.3957 241.8821 0002270 092.4277 267.7179 14.34220232042716
Epoch (UTC): 21 July 2017 04:03:15
Eccentricity: 0.0002270
inclination: 86.3957°
perigee height: 776 km
apogee height: 779 km
right ascension of ascending node: 241.8821°
argument of perigee: 92.4277°
revolutions per day: 14.34220232
mean anomaly at epoch: 267.7179°
orbit number at epoch: 4271

The dashed part of the orbit path shows where the satellite is in the earth's shadow,  

DLR